Theta_e
339 343 343 345 346 346 348 348 347 347 346 346 346 346 344 342 340 339 336 336 334 333 332 331 330 330 331 334 334 333 337 339 341 342 343 344 345 344 343 342 344 342 343
340 344 344 345 346 348 347 347 347 345 345 345 344 343 341 339 337 335 332 331 331 330 329 328 328 328 327 328 330 329 332 332 333 333 336 343 343 343 343 342 341 340 343
341 343 343 345 345 346 346 346 345 344 343 342 341 339 337 335 333 330 329 329 328 328 327 327 326 326 325 324 324 326 326 325 325 327 333 339 336 338 338 337 338 339 340
342 343 342 342 344 344 344 343 343 342 341 340 338 336 333 331 329 328 327 326 326 326 327 326 325 324 323 322 321 321 321 320 319 325 331 332 333 334 334 333 333 334 335
340 342 341 341 343 343 342 341 340 339 338 337 335 332 330 328 326 325 325 324 324 325 324 324 323 321 320 319 318 317 316 315 315 323 325 327 331 330 330 329 328 329 330
336 341 340 341 342 342 340 339 338 337 335 333 331 329 327 325 324 323 323 323 323 322 322 321 320 319 318 317 316 315 313 312 314 315 318 321 325 326 327 326 325 325 326
327 331 333 338 339 339 337 335 333 332 330 328 327 325 323 322 321 321 322 321 320 320 319 318 317 316 316 315 313 312 310 307 308 310 312 316 320 323 324 324 324 324 325
322 326 326 326 331 333 332 330 329 327 325 323 322 322 320 320 320 319 319 318 318 317 317 315 314 313 313 313 311 309 308 305 306 307 310 313 318 321 322 322 323 323 324
321 320 321 321 322 323 324 325 323 321 320 318 317 316 315 315 315 315 315 315 315 314 314 312 311 310 310 310 308 307 305 304 304 306 307 312 316 319 320 321 321 322 323
317 316 317 316 319 318 319 319 318 316 314 312 310 309 309 310 309 309 310 310 310 311 310 309 308 307 306 307 306 305 302 301 304 305 308 312 315 317 319 319 320 321 322
314 314 314 313 312 312 313 312 314 311 309 308 307 306 306 305 305 306 306 306 306 307 307 307 306 304 301 301 303 302 302 304 304 305 307 309 313 316 317 318 319 320 320
311 312 311 310 309 309 306 306 305 304 304 305 304 304 305 305 304 303 302 301 302 301 302 303 302 300 301 303 303 301 304 303 304 304 305 308 312 315 317 318 318 319 318
316 315 314 311 310 309 307 306 305 305 306 307 305 305 305 304 304 304 304 303 303 300 301 301 301 301 302 302 302 302 302 303 304 304 303 308 311 314 316 317 318 317 316
316 315 313 310 307 307 308 306 305 306 306 306 306 305 306 305 305 304 303 303 302 302 301 301 301 301 301 300 300 300 302 302 303 304 304 307 310 314 317 316 315 314 315
314 315 313 311 307 306 306 306 305 304 305 305 304 303 304 303 303 303 302 302 301 301 300 299 300 300 300 300 300 300 300 301 302 304 306 308 310 314 314 313 313 312 312
315 314 314 310 308 306 306 305 305 305 303 303 304 303 302 302 303 302 302 301 301 301 300 299 299 300 300 300 300 300 300 303 303 304 305 308 308 309 309 309 308 309 309
315 314 313 312 309 306 306 306 306 306 305 305 304 303 302 302 303 303 303 302 301 300 299 299 299 300 300 300 299 300 302 302 303 303 305 306 305 304 304 304 304 305 306
305 311 312 310 309 307 305 305 305 305 305 305 304 304 302 302 301 302 302 302 301 300 299 299 298 299 299 299 299 300 302 302 302 303 304 303 303 302 301 300 300 301 303
303 303 307 310 309 307 305 305 304 304 304 304 304 304 302 302 301 302 302 302 301 300 300 298 298 298 298 298 297 300 302 301 301 300 301 301 301 302 301 297 296 296 299
303 304 304 308 308 306 304 304 304 303 303 303 303 303 302 302 301 302 301 301 300 300 299 298 297 298 297 297 296 296 301 301 301 301 300 299 300 300 300 298 299 299 296
302 302 303 305 307 304 303 302 302 302 302 302 303 302 302 302 301 301 301 300 300 298 297 296 296 296 297 297 297 298 297 299 299 300 300 300 299 298 298 298 298 298 298
300 300 302 302 305 303 303 303 304 303 302 303 302 302 301 302 301 300 300 300 299 299 298 297 296 295 296 296 294 295 295 296 297 298 298 298 298 298 297 297 297 297 298
298 298 299 301 302 302 302 301 301 301 301 301 301 300 300 300 300 300 300 300 299 299 298 298 297 295 294 296 295 294 293 292 293 297 296 297 297 297 297 297 297 297 297
296 298 299 300 300 301 301 301 300 300 299 300 300 300 299 299 298 298 299 299 299 299 298 298 296 296 295 294 295 294 295 294 291 290 296 296 296 295 297 297 296 296 297
295 296 298 299 299 299 300 300 300 300 300 300 299 298 298 298 297 297 297 297 298 298 298 297 297 296 296 294 294 294 293 293 293 290 288 292 295 296 296 296 296 296 297
295 296 297 296 296 297 298 299 300 300 299 298 297 297 296 296 296 294 294 294 294 295 295 296 296 296 296 295 295 294 293 292 291 291 290 291 291 293 295 295 296 296 296
Wind_Speed
3 2 2 1 6 8 10 10 11 12 13 14 16 16 17 17 16 15 13 14 14 13 13 13 13 13 13 13 13 13 14 14 14 14 13 11 13 15 15 15 11 11 13
4 1 1 2 8 11 13 14 17 17 18 19 19 18 17 16 16 13 13 12 12 12 13 13 14 14 14 13 13 13 13 13 13 12 11 13 16 16 17 16 14 13 14
5 4 6 4 9 12 14 15 16 18 18 17 16 17 16 15 13 11 13 12 12 12 13 13 14 14 14 14 13 12 12 12 12 9 6 6 11 15 16 14 14 15 15
4 5 4 8 10 13 16 16 15 15 17 18 17 16 15 12 12 12 13 12 12 12 13 13 14 14 14 14 13 13 12 12 11 8 5 6 7 12 12 11 12 13 13
5 6 7 10 13 16 15 15 15 15 13 16 18 16 13 12 12 12 12 12 12 13 13 13 13 13 13 13 13 13 12 11 9 6 7 8 6 10 10 11 10 11 12
9 9 10 11 14 16 16 16 15 15 13 14 18 15 14 12 12 12 12 12 12 12 12 12 12 12 12 11 12 12 11 11 6 7 7 7 8 10 10 11 10 10 10
10 10 12 13 13 16 16 16 15 15 12 14 14 14 13 13 11 11 12 12 12 12 12 11 11 11 11 11 11 11 11 9 6 6 6 6 8 9 10 10 10 10 10
9 9 11 15 15 15 16 15 15 14 12 13 13 13 12 12 12 11 12 12 11 11 11 11 11 10 10 10 10 10 10 8 4 6 6 5 9 9 9 9 9 10 10
10 10 9 9 11 16 17 15 15 13 13 12 12 12 12 12 12 12 11 11 11 10 10 10 10 10 9 9 8 8 8 8 5 4 5 4 8 8 8 8 9 9 9
8 7 7 7 9 8 7 12 12 12 12 11 10 11 10 12 11 10 9 11 11 10 10 10 9 9 9 9 9 9 6 2 6 4 4 6 8 7 7 8 8 8 10
6 5 6 4 5 5 7 8 10 10 9 10 8 7 4 5 6 7 10 10 10 10 10 9 9 9 6 4 7 7 6 4 4 4 3 7 7 7 6 7 7 9 10
5 4 5 5 5 5 5 5 5 4 3 4 4 4 4 6 5 6 6 8 9 8 8 8 8 6 5 4 4 2 3 4 3 3 3 8 6 6 6 6 6 9 10
5 4 5 5 5 5 4 3 2 2 3 3 4 3 4 3 3 3 2 3 4 5 4 4 5 5 6 5 4 4 4 3 3 2 5 6 5 4 5 6 10 10 10
5 5 5 5 4 4 3 3 3 3 2 2 3 3 2 2 3 3 3 3 3 3 5 4 3 5 5 5 5 5 3 3 2 1 4 6 4 4 8 9 9 9 10
5 5 6 6 5 4 4 3 3 3 2 3 3 3 2 3 2 2 2 3 3 4 4 4 4 4 4 5 5 4 4 3 1 0 3 6 5 9 9 10 10 10 10
5 6 5 6 5 5 4 4 3 3 3 3 2 3 4 2 1 1 2 3 3 4 4 4 4 4 4 4 4 4 4 2 2 3 3 5 8 8 9 9 10 11 11
6 6 7 7 6 6 5 4 3 3 3 3 3 3 3 2 2 1 2 3 4 4 5 4 4 4 4 4 4 3 1 2 3 3 3 3 5 7 8 9 11 11 12
8 9 7 6 8 7 6 5 3 3 3 3 3 3 3 2 1 1 1 2 3 3 4 4 4 5 4 4 4 3 0 2 3 2 2 2 2 2 4 7 11 10 10
8 8 9 9 9 8 6 4 4 4 3 3 3 3 4 3 3 1 0 1 2 2 3 4 4 5 4 5 4 2 1 3 2 1 4 3 3 1 1 3 5 5 9
8 7 8 7 8 8 5 4 3 3 4 3 4 4 4 3 4 2 1 0 2 2 3 4 5 4 4 5 4 3 3 3 2 1 4 3 3 2 2 6 5 3 7
6 8 7 6 9 7 6 5 5 5 5 4 4 4 4 3 4 3 1 1 1 2 3 4 4 5 3 5 5 3 4 5 6 4 3 4 5 3 3 5 4 5 4
8 8 7 6 7 8 5 4 2 3 3 3 3 4 4 4 4 4 3 2 2 2 2 2 2 3 2 4 4 3 3 4 4 5 4 4 5 3 4 5 5 6 4
9 10 9 6 6 7 6 3 3 2 2 3 4 3 3 3 3 4 4 3 3 3 3 2 2 2 3 1 3 4 3 2 4 3 5 4 5 4 4 5 6 6 6
9 8 7 5 3 4 5 5 7 5 5 3 3 3 3 2 2 1 2 2 3 2 3 3 3 3 3 4 2 2 2 3 3 5 3 3 4 6 8 7 7 7 6
7 7 6 4 1 2 5 6 5 5 3 3 4 5 4 3 2 1 1 2 2 2 3 4 4 4 4 4 4 3 3 4 5 6 8 7 6 8 6 8 8 7 7
6 6 5 4 2 2 4 5 7 6 5 5 5 4 3 2 2 1 1 1 1 2 3 4 4 5 5 5 5 5 6 5 5 6 8 10 12 10 6 8 9 7 6
Wind_Direction
109 360 1 192 160 152 134 124 113 103 98 92 87 85 80 76 68 63 60 60 58 54 51 46 45 47 48 41 44 44 43 37 35 28 22 46 62 66 55 40 21 50 45
302 303 65 140 154 148 129 116 103 95 90 87 80 76 75 74 71 70 64 60 62 57 56 51 43 45 44 45 39 38 46 47 43 32 9 65 45 50 47 43 38 34 38
285 164 147 135 149 123 113 111 107 105 100 96 92 88 80 74 73 71 69 60 58 59 52 51 49 43 41 36 34 40 41 42 41 38 4 48 59 40 42 34 34 27 24
315 125 133 121 115 102 92 86 93 99 105 105 95 90 87 88 82 73 69 63 58 57 58 52 48 44 42 37 34 34 35 35 31 9 43 35 56 41 40 37 36 29 20
81 90 110 115 113 98 96 98 98 97 98 102 100 94 91 88 83 78 72 66 58 54 53 55 51 48 44 42 40 34 33 30 19 6 34 25 23 46 39 35 34 32 25
55 68 92 102 105 102 98 93 92 91 94 99 98 97 96 88 82 79 73 70 66 57 49 49 49 47 42 43 44 40 35 27 356 30 21 33 30 24 29 30 29 31 24
56 56 52 72 82 94 92 90 89 88 90 87 90 96 96 93 86 79 76 67 63 60 53 49 47 47 43 38 39 41 36 24 21 42 36 19 28 19 25 25 24 23 23
65 60 60 50 60 74 84 87 88 88 84 80 85 86 81 79 79 77 72 68 59 56 52 45 46 44 44 41 36 36 34 12 38 37 35 26 9 5 24 25 22 24 22
53 60 59 58 64 64 68 72 79 81 80 81 83 82 83 78 73 70 66 64 63 57 54 45 39 34 36 42 37 32 30 12 24 35 20 22 5 7 16 25 25 26 29
62 54 57 57 63 70 68 77 85 92 93 92 88 85 83 85 72 63 62 52 52 49 46 48 44 29 25 26 24 21 8 323 30 36 27 28 357 7 26 25 27 31 31
76 63 74 69 81 95 93 94 84 93 94 95 84 85 105 77 69 64 57 49 45 42 40 37 30 25 6 35 22 11 310 24 13 20 22 9 354 12 27 36 35 38 30
108 119 112 119 115 107 114 90 90 91 78 72 93 82 73 70 65 69 60 48 46 26 35 26 18 9 352 0 4 339 17 8 14 11 34 356 355 23 40 36 46 34 29
152 153 149 152 144 151 133 133 125 136 142 121 117 90 85 86 73 55 39 28 19 13 14 3 10 14 6 356 2 351 346 348 4 17 50 358 10 35 67 69 45 33 23
194 178 172 172 165 157 159 171 150 146 137 124 92 89 104 88 60 44 38 26 14 12 360 9 4 356 351 349 345 338 339 333 346 15 89 353 12 50 63 52 43 36 25
219 203 197 190 185 178 183 165 157 140 142 125 124 94 80 81 72 53 33 20 15 357 3 353 349 345 336 336 344 336 329 333 333 127 95 8 32 60 61 53 38 25 14
240 230 213 207 202 196 200 183 163 163 148 151 135 101 89 85 89 58 48 21 17 352 355 344 338 334 328 327 340 344 341 26 102 126 122 99 58 65 59 48 29 12 359
263 265 237 220 198 209 207 193 188 183 186 174 146 129 114 113 101 47 39 21 8 348 332 332 331 320 318 329 338 346 336 87 121 120 124 129 129 73 58 38 14 359 347
301 279 261 228 210 209 208 199 194 186 193 178 171 171 148 147 125 65 24 29 357 338 336 332 342 328 329 337 330 353 91 143 119 117 135 139 125 123 105 26 359 357 356
311 296 275 241 225 210 201 200 198 188 204 195 201 199 183 183 184 216 91 38 329 334 337 335 335 338 326 335 325 320 189 159 131 161 151 146 122 145 4 9 356 339 348
319 313 288 253 225 203 189 187 191 198 206 206 212 214 201 203 194 215 201 359 337 330 339 343 332 331 316 330 305 271 222 200 211 158 183 176 164 201 302 343 338 351 327
344 332 309 258 214 192 190 196 215 218 205 210 214 211 214 207 204 219 245 281 332 341 347 339 326 321 313 338 281 220 216 216 228 224 233 209 209 232 300 330 329 330 332
343 339 322 272 219 204 208 212 230 192 205 207 186 187 197 204 206 219 224 227 239 261 270 312 332 318 291 349 328 281 249 182 214 217 221 229 241 237 249 310 319 326 306
353 345 331 303 234 207 203 174 159 146 152 181 184 178 164 183 194 214 220 237 242 267 284 286 275 278 299 259 343 310 283 320 324 168 215 236 236 262 268 299 298 314 296
348 343 343 333 251 223 208 217 221 227 211 190 181 170 169 170 178 199 227 241 247 251 261 273 259 274 260 287 280 233 288 318 311 293 212 237 254 285 292 295 292 299 286
339 344 344 349 340 225 224 244 232 228 214 177 182 186 192 185 170 133 297 274 280 277 274 269 259 247 254 274 265 282 255 257 254 266 284 279 279 281 280 297 289 286 279
328 333 337 330 322 268 230 221 226 222 206 203 204 212 214 212 179 130 147 356 336 326 314 304 291 271 269 263 270 262 259 271 269 259 275 279 296 294 291 289 286 285 281